{"data":{"norad_id":59773,"epoch":"2026-09-22T17:15:39.528864Z","epoch_age_seconds":80921,"freshness":"FRESH","line1":"1 59773U 24092A   26265.71920751  .00004170  00000+0  20176-3 0  9991","line2":"2 59773  97.4466  20.4209 0004891  27.8477 332.3019 15.19127457131203","mean_motion":15.19127457,"eccentricity":0.0004891,"inclination_deg":97.4466,"raan_deg":20.4209,"arg_perigee_deg":27.8477,"mean_anomaly_deg":332.3019,"bstar":0.00020176,"rev_number":13120,"period_min":94.791256215179,"perigee_km":505.1080910265,"apogee_km":511.84457618943,"semimajor_km":6886.613333608,"source":"CELESTRAK","updated_at":"2026-09-23T09:00:19.578740Z"}}